STARLINK-3103, 49177

Orbit data source: Space-Track

STARLINK-3103, 49177 is a payload satellite owned by SpaceX/Seattle (US) in LEO that was launched on Tue, 14 Sep 2021 UTC via an FALCON 9 launch vehicle from the Air Force Western Test Range (AFWTR). Payload-class satellites include a variety of spacecraft equipped with specific instruments for various scientific and technological missions. These include communications satellites like Starlink; space stations such as the ISS; scientific satellites like the Hubble; Earth observation satellites from companies like Planet Labs, Umbra, and HawkEye 360; GPS; miniature CubeSats for education and research; and military/defense satellites.

Loading next visibility...
Identifier
49177, 2021-082AZ
Orbit
LEO
Country
Flag of USUS
Related business
Manufacturer
SpaceX/Seattle
Mission
Operational Commercial Communications
Bus & Motor
STARLINK, Unknown motor
Mass
297 kg wet, ~275 kg dry
Launch date (UTC)
2021-09-14 (4 years ago)
Launch vehicle
FALCON 9
Launch site
Air Force Western Test Range (AFWTR)
Object type
Payload
Rocket body
Debris
Shape & HBR
Box + 1 Pan, 10.1 m
Radar Cross Section
13.562 m², Large (>1 m²)

Expand to show TLE details & history
Last TLE update: 9 hours ago

TLE from 9 hours ago
0 STARLINK-3103
1 49177U 21082AZ  25286.92083981  .00000304  00000-0  33294-4 0  9996
2 49177  69.9985 264.5152 0002804 270.6318  89.4520 14.98331699226171
Epoch: 2025-10-13T22:06Z
TLE epoch observation values (Epoch: 2025-10-13T22:06:00.559Z)
Latitude
-0.00001°
Longitude
-89.70382°
Altitude
574.456 km
Speed
7.574 km/s
True Right ascension
17h 38m 03s
True Declination
0° 00' 00"
Sunlit
Object was in daylight at epoch
Visualization orbit readout
Latitude
Unknown
Longitude
Unknown
Altitude
Unknown
Speed
Unknown
Apparent Right ascension
Unknown
Apparent Declination
Unknown
Sunlit
N/A
Visualization observer readout
Local Sidereal Time
01:26:51
Azimuth
Unknown
Elevation
Unknown
Doppler factor
Unknown
Orbital elements
Apogee altitude
571.947 km
Perigee altitude
568.051 km
Semi-major axis
6,948.136 km
Eccentricity
0.00028
Inclination
69.9985°
RAAN
264.5152°
Arg. of periapsis
270.6318°
True anomaly
89.48413°
Mean anomaly
89.452°
Eccentric anomaly
89.46807°
Mean motion
3.74749 °/min
Orbital period
96.06 mins
BSTAR
0.000033294
Loading maneuver chart data...
Computing Atmospheric mass density...
Loading historical data...
Loading historical data...
Loading historical data...
Loading historical data...
Loading historical data...
Loading historical data...
Loading historical data...

Documentation

Showing up to 5 results
|